User: anonymous   Login
Location: Unspecified
(0.0000°N, 0.0000°E)
Time: 13:05:10
(UTC+00:00)
Language:

STPSAT 2 (USA 217) - Orbit

View from above orbital plane
View from above orbital plane
View from above satellite
View from above satellite

Ground track
Ground track

The orbit data is extracted from the following two-line orbital elements,

1 37222U 10062A   18343.26548150 0.00000060  00000-0  82068-5 0    03
2 37222  71.9711 127.0374 0017500 225.8460 134.1539 14.78391132    03
Epoch (UTC): 09 December 2018 06:22:17
Eccentricity: 0.0017500
inclination: 71.9711°
perigee height: 622 km
apogee height: 646 km
right ascension of ascending node: 127.0374°
argument of perigee: 225.8460°
revolutions per day: 14.78391132
mean anomaly at epoch: 134.1539°
orbit number at epoch: 0

The dashed part of the orbit path shows where the satellite is in the earth's shadow,  

DLR